Find Starlink 38099

NORAD ID: 69987 Int'l Des: 2026-159 Owner: SPXS Country: US Constellation: starlink operational
LEOCIRCULARRETROGRADE

当前视图

正在加载3D地球...

About Starlink 38099

Starlink 38099 (NORAD 69987) is a starlink constellation satellite (v2 mini) launched Jul 11, 2026 by SPXS of US. It operates in LEO, CIRCULAR, RETROGRADE orbit with a mass of 575.00 kg.

即将过境

Passes for default location (London). Set your location on the main map for personalized predictions.

高度历史

Loading altitude history...

两行轨道根数

1 69987U 26159N 26224.11288397 .00199607 00000-0 13005-2 0 9990
2 69987 97.2832 64.2440 0002370 104.8582 255.2946 15.75323024 6261
Epoch: Aug 12, 2026 • Age: 7 hours

当前状态

高度 353.2 km
远地点 / 近地点 N/A
速度 7.70 km/s
星下点 65.61°N, 160.66°E
发射日期 Jul 11, 2026
运行时间 32 days
类型 internet

技术详情

分类 Payload
质量 575.00 kg
干质量 530.00 kg
总质量 575.00 kg
长度 0.30 m
直径 4.10 m
跨度 29.00 m
形状 Box + pan
制造商 SPXS
平台类型 Starlink V2MO
阶段状态 In Orbit
所有者/国家 SPXS/US

Most Searched